CW0121 Weather Reports


Display with metric or nautical units.
time (UTC)temp
F
wind
direction
speed
MPH
gust
MPH
rain 1hr
in
rain 24hr
in
rain mn
in
humidity
%
barometer
mb
20260904210035 88 73 9.0 16.0 0.00 0.00 0.00 47 1012.8
20260904210017 88 59 8.0 16.0 0.00 0.00 0.00 48 1008.5
20260904205516 88 60 7.0 13.0 0.00 0.00 0.00 49 1013.0
20260904205013 88 77 6.0 14.0 0.00 0.00 0.00 50 1013.1
20260904204526 88 67 6.0 15.0 0.00 0.00 0.00 48 1008.9
20260904204511 88 65 6.0 15.0 0.00 0.00 0.00 49 1013.1
20260904204009 88 60 10.0 15.0 0.00 0.00 0.00 50 1013.2
20260904203508 88 60 7.0 13.0 0.00 0.00 0.00 49 1013.3
20260904203022 88 63 6.0 10.0 0.00 0.00 0.00 50 1013.5
20260904203019 88 57 5.0 10.0 0.00 0.00 0.00 50 1009.3
20260904202511 88 46 6.0 11.0 0.00 0.00 0.00 47 1013.5
20260904202016 88 102 5.0 11.0 0.00 0.00 0.00 45 1013.5
20260904201526 88 64 5.0 10.0 0.00 0.00 0.00 49 1013.5
20260904201513 88 46 5.0 10.0 0.00 0.00 0.00 50 1009.5
20260904201013 88 37 4.0 10.0 0.00 0.00 0.00 52 1013.5
20260904200511 88 63 3.0 11.0 0.00 0.00 0.00 51 1013.7
20260904200045 88 58 6.0 11.0 0.00 0.00 0.00 50 1013.8
20260904200013 88 69 6.0 11.0 0.00 0.00 0.00 50 1009.6
20260904195515 89 70 3.0 9.0 0.00 0.00 0.00 51 1013.8
20260904195014 88 60 5.0 8.0 0.00 0.00 0.00 50 1013.9
20260904194533 89 124 4.0 8.0 0.00 0.00 0.00 49 1013.9
20260904194512 89 114 3.0 8.0 0.00 0.00 0.00 49 1009.8
20260904194014 88 79 3.0 10.0 0.00 0.00 0.00 49 1013.9
20260904193517 88 75 6.0 10.0 0.00 0.00 0.00 49 1013.9
20260904193015 88 73 3.0 8.0 0.00 0.00 0.00 53 1013.8
20260904193009 88 126 3.0 8.0 0.00 0.00 0.00 51 1009.8
20260904192507 88 52 4.0 8.0 0.00 0.00 0.00 53 1013.8
20260904192011 88 63 5.0 9.0 0.00 0.00 0.00 52 1013.8
20260904191517 88 65 5.0 10.0 0.00 0.00 0.00 52 1013.8
20260904191508 87 117 5.0 10.0 0.00 0.00 0.00 53 1009.8
20260904191011 87 51 5.0 10.0 0.00 0.00 0.00 53 1013.9
20260904190509 87 70 4.0 10.0 0.00 0.00 0.00 52 1013.9
20260904190027 87 63 4.0 10.0 0.00 0.00 0.00 50 1013.9
20260904190006 87 64 4.0 10.0 0.00 0.00 0.00 51 1009.8
20260904185509 87 88 4.0 12.0 0.00 0.00 0.00 54 1013.9
20260904185012 87 51 6.0 12.0 0.00 0.00 0.00 52 1013.9
20260904184536 86 97 3.0 10.0 0.00 0.00 0.00 58 1013.9
20260904184503 86 124 2.0 10.0 0.00 0.00 0.00 59 1009.8
20260904184017 86 57 5.0 10.0 0.00 0.00 0.00 56 1013.9
20260904183516 85 81 4.0 8.0 0.00 0.00 0.00 63 1013.7
20260904183115 85 50 6.0 8.0 0.00 0.00 0.00 64 1009.7
20260904183030 85 41 5.0 8.0 0.00 0.00 0.00 64 1013.8
20260904182530 84 24 3.0 8.0 0.00 0.00 0.00 67 1013.9
20260904182019 84 57 3.0 8.0 0.00 0.00 0.00 68 1013.9
20260904181555 83 72 5.0 8.0 0.00 0.00 0.00 67 1009.9
20260904181516 83 118 4.0 7.0 0.00 0.00 0.00 68 1013.9
20260904181009 82 355 4.0 7.0 0.00 0.00 0.00 70 1013.9
20260904180508 83 56 4.0 7.0 0.00 0.00 0.00 71 1013.9
20260904180058 82 31 2.0 6.0 0.00 0.00 0.00 71 1009.8
20260904180026 82 36 3.0 6.0 0.00 0.00 0.00 72 1013.9
20260904175514 82 141 2.0 8.0 0.00 0.00 0.00 73 1013.8
20260904175012 81 18 4.0 8.0 0.00 0.00 0.00 74 1013.8
20260904174548 80 24 4.0 8.0 0.00 0.00 0.00 75 1009.9
20260904174528 80 7 4.0 8.0 0.00 0.00 0.00 75 1013.7
20260904174014 80 18 4.0 9.0 0.00 0.00 0.00 76 1013.7
20260904173517 79 62 5.0 10.0 0.00 0.00 0.00 76 1013.7
20260904173052 79 78 5.0 10.0 0.00 0.00 0.00 76 1009.9
20260904173044 79 51 4.0 10.0 0.00 0.00 0.00 76 1013.7
20260904172517 78 15 5.0 10.0 0.00 0.00 0.00 77 1013.7
20260904172016 77 347 4.0 8.0 0.00 0.00 0.00 79 1013.7
20260904171603 77 44 4.0 8.0 0.00 0.00 0.00 79 1009.9
20260904171532 77 57 5.0 8.0 0.00 0.00 0.00 78 1013.7
20260904171014 77 30 5.0 9.0 0.00 0.00 0.00 79 1013.7
20260904170519 76 25 5.0 9.0 0.00 0.00 0.00 80 1013.8
20260904170041 75 63 5.0 7.0 0.00 0.00 0.00 81 1010.0
20260904170016 76 64 5.0 9.0 0.00 0.00 0.00 80 1013.8
20260904165510 75 312 3.0 9.0 0.00 0.00 0.00 82 1013.9
20260904165012 75 346 3.0 8.0 0.00 0.00 0.00 82 1014.0
20260904164539 74 34 2.0 7.0 0.00 0.00 0.00 84 1010.1
20260904164524 74 59 2.0 9.0 0.00 0.00 0.00 83 1014.1
20260904164012 73 86 4.0 9.0 0.00 0.00 0.00 84 1013.9
20260904163512 73 14 5.0 9.0 0.00 0.00 0.00 84 1013.9
20260904163031 72 2 3.0 8.0 0.00 0.00 0.00 86 1010.0
20260904162514 72 274 4.0 8.0 0.00 0.00 0.00 85 1014.0
20260904162015 71 351 4.0 8.0 0.00 0.00 0.00 87 1013.9
20260904161532 71 14 5.0 8.0 0.00 0.00 0.00 87 1014.1
20260904161528 71 8 4.0 8.0 0.00 0.00 0.00 88 1010.2
20260904161014 70 309 3.0 8.0 0.00 0.00 0.00 88 1014.1
20260904160517 70 359 4.0 8.0 0.00 0.00 0.00 89 1014.1
20260904160043 70 51 4.0 7.0 0.00 0.00 0.00 89 1013.9
20260904160026 70 20 4.0 7.0 0.00 0.00 0.00 90 1010.1
20260904155518 69 45 3.0 7.0 0.00 0.00 0.00 92 1013.9
20260904155019 68 48 4.0 11.0 0.00 0.00 0.00 93 1013.8
20260904154522 67 356 5.0 11.0 0.00 0.00 0.00 94 1009.8
20260904154519 67 10 6.0 11.0 0.00 0.00 0.00 93 1013.7
20260904154012 67 59 5.0 9.0 0.00 0.00 0.00 95 1013.7
20260904153512 66 11 3.0 8.0 0.00 0.00 0.00 95 1013.7
20260904153032 66 33 5.0 8.0 0.00 0.00 0.00 96 1009.8
20260904153029 66 347 5.0 8.0 0.00 0.00 0.00 95 1013.8
20260904152514 66 60 3.0 8.0 0.00 0.00 0.00 96 1013.8
20260904152014 65 41 4.0 8.0 0.00 0.00 0.00 96 1013.8
20260904151530 65 21 4.0 6.0 0.00 0.00 0.00 96 1013.7
20260904151517 65 41 4.0 6.0 0.00 0.00 0.00 96 1009.8
20260904151016 65 11 3.0 6.0 0.00 0.00 0.00 96 1013.7
20260904150517 64 9 3.0 6.0 0.00 0.00 0.00 96 1013.7
20260904150032 64 18 2.0 5.0 0.00 0.00 0.00 96 1013.7
20260904150018 64 352 2.0 5.0 0.00 0.00 0.00 96 1009.7
20260904145520 64 340 3.0 7.0 0.00 0.00 0.00 96 1013.7
20260904145019 64 24 5.0 7.0 0.00 0.00 0.00 96 1013.6
20260904144534 63 24 3.0 6.0 0.00 0.00 0.00 96 1013.6
20260904144514 63 20 3.0 6.0 0.00 0.00 0.00 96 1009.6
20260904144015 63 25 2.0 6.0 0.00 0.00 0.00 96 1013.6
20260904143517 63 39 2.0 8.0 0.00 0.00 0.00 96 1013.6
20260904143029 63 17 2.0 10.0 0.00 0.00 0.00 96 1013.5
20260904143020 63 6 2.0 10.0 0.00 0.00 0.00 96 1009.5
20260904142514 63 56 6.0 10.0 0.00 0.00 0.00 96 1013.4
20260904142015 63 15 4.0 8.0 0.00 0.00 0.00 96 1013.4
20260904141529 63 45 2.0 10.0 0.00 0.00 0.00 96 1013.3
20260904141515 63 323 2.0 10.0 0.00 0.00 0.00 96 1009.3
20260904141013 63 20 5.0 10.0 0.00 0.00 0.00 96 1013.3
20260904140518 62 60 5.0 9.0 0.00 0.00 0.00 96 1013.1
20260904140030 62 71 5.0 9.0 0.00 0.00 0.00 96 1013.1
20260904140019 62 332 5.0 9.0 0.00 0.00 0.00 96 1009.1
20260904135514 62 338 3.0 7.0 0.00 0.00 0.00 96 1013.0
20260904135014 62 58 3.0 8.0 0.00 0.00 0.00 96 1013.0
20260904134539 62 47 5.0 8.0 0.00 0.00 0.00 96 1013.0
20260904134510 62 78 4.0 8.0 0.00 0.00 0.00 96 1009.0
20260904134018 62 320 3.0 11.0 0.00 0.00 0.00 96 1013.0
20260904133516 61 34 6.0 11.0 0.00 0.00 0.00 96 1012.9
20260904133035 61 55 5.0 9.0 0.00 0.00 0.00 96 1013.0
20260904133009 61 53 4.0 8.0 0.00 0.00 0.00 96 1009.0
20260904132526 61 42 5.0 10.0 0.00 0.00 0.00 96 1013.0
20260904132018 61 65 6.0 12.0 0.00 0.00 0.00 95 1012.9
20260904131527 61 49 6.0 12.0 0.00 0.00 0.00 96 1009.0
20260904131016 61 46 6.0 11.0 0.00 0.00 0.00 95 1012.9
20260904130516 61 75 5.0 10.0 0.00 0.00 0.00 95 1012.9
20260904130030 61 51 6.0 10.0 0.00 0.00 0.00 95 1013.0
20260904130007 61 45 5.0 10.0 0.00 0.00 0.00 96 1009.0
20260904125517 61 54 6.0 10.0 0.00 0.00 0.00 95 1012.9
20260904125013 61 41 4.0 8.0 0.00 0.00 0.00 95 1013.0
20260904124528 60 55 3.0 8.0 0.00 0.00 0.00 95 1013.0
20260904124507 60 63 2.0 8.0 0.00 0.00 0.00 96 1009.0
20260904124015 60 98 4.0 7.0 0.00 0.00 0.00 95 1013.0
20260904123516 60 69 3.0 7.0 0.00 0.00 0.00 95 1013.0
20260904123016 60 44 3.0 7.0 0.00 0.00 0.00 95 1012.8
20260904123004 60 29 3.0 7.0 0.00 0.00 0.00 96 1008.9
20260904122508 60 59 4.0 7.0 0.00 0.00 0.00 95 1012.9
20260904122010 60 48 5.0 7.0 0.00 0.00 0.00 95 1012.8
20260904121523 60 37 3.0 6.0 0.00 0.00 0.00 95 1012.8
20260904121507 60 63 3.0 5.0 0.00 0.00 0.00 96 1008.8
20260904121012 60 27 2.0 10.0 0.00 0.00 0.00 95 1012.8
20260904120511 60 22 4.0 10.0 0.00 0.00 0.00 95 1012.6
20260904120027 60 20 6.0 10.0 0.00 0.00 0.00 95 1012.4
20260904120000 60 20 5.0 10.0 0.00 0.00 0.00 96 1008.4
20260904115511 60 26 6.0 10.0 0.00 0.00 0.00 95 1012.4
20260904115012 60 16 4.0 11.0 0.00 0.00 0.00 95 1012.5
20260904114606 60 338 5.0 11.0 0.00 0.00 0.00 95 1008.5
20260904114530 60 29 6.0 11.0 0.00 0.00 0.00 95 1012.5
20260904114017 60 37 7.0 11.0 0.00 0.00 0.00 95 1012.4
20260904113514 60 8 5.0 11.0 0.00 0.00 0.00 95 1012.4
20260904113057 60 316 6.0 11.0 0.00 0.00 0.00 95 1008.3
20260904113031 60 26 7.0 11.0 0.00 0.00 0.00 94 1012.3
20260904112520 60 14 6.0 11.0 0.00 0.00 0.00 94 1012.3
20260904112018 60 325 4.0 7.0 0.00 0.00 0.00 94 1012.3
20260904111555 60 8 3.0 6.0 0.00 0.00 0.00 94 1008.2
20260904111515 60 6 3.0 7.0 0.00 0.00 0.00 94 1012.3
20260904111010 60 18 2.0 9.0 0.00 0.00 0.00 94 1012.2
20260904110511 60 15 4.0 9.0 0.00 0.00 0.00 94 1012.1
20260904110051 60 20 2.0 8.0 0.00 0.00 0.00 94 1008.0
20260904110026 60 15 3.0 8.0 0.00 0.00 0.00 94 1012.0
20260904105515 60 27 3.0 9.0 0.00 0.00 0.00 94 1011.9
20260904105012 60 346 6.0 9.0 0.00 0.00 0.00 94 1011.9
20260904104554 60 6 4.0 9.0 0.00 0.00 0.00 94 1007.9
20260904104527 60 34 5.0 10.0 0.00 0.00 0.00 94 1011.9
20260904104011 60 20 4.0 10.0 0.00 0.00 0.00 94 1011.9
20260904103515 60 29 4.0 10.0 0.00 0.00 0.00 94 1011.9
20260904103054 60 27 4.0 9.0 0.00 0.00 0.00 94 1007.8
20260904103031 60 22 4.0 9.0 0.00 0.00 0.00 94 1011.8
20260904102514 60 352 4.0 7.0 0.00 0.00 0.00 94 1011.8
20260904102016 60 55 3.0 9.0 0.00 0.00 0.00 94 1011.9
20260904101551 60 55 4.0 9.0 0.00 0.00 0.00 94 1007.7
20260904101534 60 34 4.0 9.0 0.00 0.00 0.00 94 1011.8
20260904101024 60 24 4.0 9.0 0.00 0.00 0.00 94 1011.8
20260904100520 61 13 5.0 8.0 0.00 0.00 0.00 93 1011.7
20260904100047 61 32 3.0 6.0 0.00 0.00 0.00 94 1007.5
20260904100022 61 32 3.0 6.0 0.00 0.00 0.00 93 1011.8
20260904095516 61 42 4.0 6.0 0.00 0.00 0.00 93 1011.7
20260904095009 61 4 4.0 6.0 0.00 0.00 0.00 93 1011.7
20260904094558 61 1 3.0 5.0 0.00 0.00 0.00 94 1007.5
20260904094537 61 45 3.0 5.0 0.00 0.00 0.00 93 1011.7
20260904094003 61 26 2.0 4.0 0.00 0.00 0.00 93 1011.7
20260904093502 61 30 2.0 6.0 0.00 0.00 0.00 93 1011.6
20260904093040 61 23 1.0 6.0 0.00 0.00 0.00 93 1007.4
20260904093006 61 4 1.0 6.0 0.00 0.00 0.00 93 1011.6
20260904092502 61 12 3.0 6.0 0.00 0.00 0.00 93 1011.6
20260904092002 61 25 3.0 8.0 0.00 0.00 0.00 93 1011.6
20260904091538 62 344 2.0 8.0 0.00 0.00 0.00 93 1007.3
20260904091512 62 30 3.0 8.0 0.00 0.00 0.00 93 1011.4
20260904091005 62 25 4.0 8.0 0.00 0.00 0.00 93 1011.3
20260904090506 62 27 5.0 8.0 0.00 0.00 0.00 93 1011.2
20260904090036 62 26 3.0 7.0 0.00 0.00 0.00 93 1007.1
20260904090030 62 52 4.0 7.0 0.00 0.00 0.00 92 1011.3
20260904085506 62 6 3.0 7.0 0.00 0.00 0.00 92 1011.2
20260904085010 62 339 4.0 8.0 0.00 0.00 0.00 92 1011.2
20260904084534 62 42 4.0 8.0 0.00 0.00 0.00 93 1007.0
20260904084524 62 37 5.0 8.0 0.00 0.00 0.00 92 1011.2
20260904084013 62 43 5.0 8.0 0.00 0.00 0.00 92 1011.2
20260904083511 62 11 5.0 8.0 0.00 0.00 0.00 92 1011.2
20260904083049 63 39 4.0 8.0 0.00 0.00 0.00 92 1011.2
20260904083039 63 13 4.0 8.0 0.00 0.00 0.00 93 1006.9
20260904082502 63 37 4.0 7.0 0.00 0.00 0.00 92 1011.2
20260904082003 63 44 4.0 6.0 0.00 0.00 0.00 92 1011.3
20260904081531 63 16 2.0 5.0 0.00 0.00 0.00 92 1007.1
20260904081507 63 27 3.0 5.0 0.00 0.00 0.00 92 1011.3
20260904081001 63 12 2.0 4.0 0.00 0.00 0.00 92 1011.4
20260904080502 63 37 2.0 5.0 0.00 0.00 0.00 91 1011.4
20260904080030 63 70 1.0 7.0 0.00 0.00 0.00 92 1007.2
20260904080014 63 69 2.0 7.0 0.00 0.00 0.00 91 1011.3
20260904075506 63 57 2.0 8.0 0.00 0.00 0.00 91 1011.2
20260904075007 63 62 4.0 8.0 0.00 0.00 0.00 91 1011.0
20260904074527 63 49 3.0 8.0 0.00 0.00 0.00 92 1006.9
20260904074519 63 64 4.0 8.0 0.00 0.00 0.00 91 1011.0
20260904074010 63 63 2.0 7.0 0.00 0.00 0.00 91 1011.0
20260904073511 63 44 2.0 7.0 0.00 0.00 0.00 91 1011.0
20260904073027 63 63 3.0 8.0 0.00 0.00 0.00 91 1010.9
20260904073025 63 53 3.0 8.0 0.00 0.00 0.00 91 1006.8
20260904072513 64 46 4.0 8.0 0.00 0.00 0.00 91 1010.8
20260904072013 64 50 4.0 8.0 0.00 0.00 0.00 90 1010.8
20260904071527 64 54 4.0 8.0 0.00 0.00 0.00 90 1010.9
20260904071525 64 20 4.0 8.0 0.00 0.00 0.00 91 1006.6
20260904071003 64 55 4.0 8.0 0.00 0.00 0.00 90 1010.8
20260904070506 64 55 4.0 9.0 0.00 0.00 0.00 89 1010.9
20260904070019 65 48 4.0 9.0 0.00 0.00 0.00 89 1006.6
20260904070011 65 31 4.0 9.0 0.00 0.00 0.00 89 1010.8
20260904065506 65 48 4.0 8.0 0.00 0.00 0.00 89 1010.8
20260904065007 65 44 4.0 8.0 0.00 0.00 0.00 88 1010.8
20260904064517 65 40 4.0 9.0 0.00 0.00 0.00 89 1006.5
20260904064513 65 35 4.0 9.0 0.00 0.00 0.00 88 1010.8
20260904064006 65 30 6.0 11.0 0.00 0.00 0.00 88 1010.8
20260904063509 65 354 5.0 11.0 0.00 0.00 0.00 88 1010.8
20260904063026 66 32 5.0 11.0 0.00 0.00 0.00 88 1010.7
20260904063016 65 39 5.0 11.0 0.00 0.00 0.00 88 1006.4
20260904062513 66 18 6.0 13.0 0.00 0.00 0.00 88 1010.7
20260904062011 66 323 6.0 14.0 0.00 0.00 0.00 87 1010.7
20260904061530 66 16 8.0 14.0 0.00 0.00 0.00 88 1010.6
20260904061515 66 33 8.0 14.0 0.00 0.00 0.00 88 1006.3
20260904061014 66 31 7.0 13.0 0.00 0.00 0.00 87 1010.6
20260904060512 66 46 7.0 12.0 0.00 0.00 0.00 87 1010.7
20260904060033 66 10 7.0 13.0 0.00 0.00 0.00 87 1010.7
20260904060017 66 10 7.0 13.0 0.00 0.00 0.00 88 1006.3
20260904055505 67 11 6.0 13.0 0.00 0.00 0.00 88 1010.7
20260904055004 67 21 7.0 12.0 0.00 0.00 0.00 88 1010.6
20260904054525 67 333 7.0 14.0 0.00 0.00 0.00 88 1006.2
20260904054511 67 19 8.0 14.0 0.00 0.00 0.00 88 1010.6
20260904054005 67 19 7.0 14.0 0.00 0.00 0.00 89 1010.7
20260904053507 66 330 6.0 11.0 0.00 0.00 0.00 89 1010.7
20260904053035 66 335 4.0 10.0 0.00 0.00 0.00 89 1010.6
20260904053013 66 338 4.0 10.0 0.00 0.00 0.00 90 1006.2
20260904052507 66 6 6.0 10.0 0.00 0.00 0.00 90 1010.5
20260904052011 66 326 5.0 8.0 0.00 0.00 0.00 90 1010.6
20260904051535 66 323 3.0 8.0 0.00 0.00 0.00 91 1010.5
20260904051506 66 340 3.0 8.0 0.00 0.00 0.00 91 1006.2
20260904051010 66 349 3.0 11.0 0.00 0.00 0.00 91 1010.3
20260904050513 66 313 3.0 11.0 0.00 0.00 0.00 91 1010.1
20260904050058 65 333 6.0 11.0 0.00 0.00 0.00 91 1005.9
20260904050037 66 334 6.0 11.0 0.00 0.00 0.00 90 1010.6
20260904045514 66 316 2.0 3.0 0.00 0.00 0.00 90 1009.9
20260904045016 66 333 1.0 3.0 0.00 0.00 0.00 90 1009.8
20260904044557 66 340 1.0 4.0 0.00 0.00 0.00 90 1005.2
20260904044533 66 7 1.0 5.0 0.00 0.00 0.00 90 1009.7
20260904044005 66 319 3.0 5.0 0.00 0.00 0.00 88 1009.7
20260904043505 67 318 3.0 5.0 0.00 0.00 0.00 86 1009.7
20260904043057 68 323 1.0 3.0 0.00 0.00 0.00 86 1005.1
20260904043012 69 334 1.0 3.0 0.00 0.00 0.00 86 1009.5
20260904042507 69 8 0.0 4.0 0.00 0.00 0.00 86 1009.5
20260904042008 69 53 1.0 4.0 0.00 0.00 0.00 86 1009.5
20260904041556 69 39 1.0 3.0 0.00 0.00 0.00 86 1004.9
20260904041518 69 48 1.0 3.0 0.00 0.00 0.00 86 1009.5
20260904041010 69 324 1.0 3.0 0.00 0.00 0.00 85 1009.5
20260904040510 70 337 1.0 5.0 0.00 0.00 0.00 84 1009.6
20260904040048 70 333 1.0 5.0 0.00 0.00 0.00 85 1004.9
20260904040026 70 352 2.0 5.0 0.00 0.00 0.00 84 1009.5
20260904035511 70 15 3.0 5.0 0.00 0.00 0.00 84 1009.5
20260904035013 70 26 2.0 6.0 0.00 0.00 0.00 84 1009.4
20260904034546 70 31 2.0 6.0 0.00 0.00 0.00 84 1005.0
20260904034530 70 26 3.0 6.0 0.00 0.00 0.00 84 1009.4
20260904034016 70 24 3.0 6.0 0.00 0.00 0.00 84 1009.5
20260904033514 70 10 2.0 7.0 0.00 0.00 0.00 84 1009.4
20260904033046 70 6 2.0 7.0 0.00 0.00 0.00 84 1004.9
20260904033031 70 30 3.0 7.0 0.00 0.00 0.00 84 1009.4
20260904032506 70 319 3.0 6.0 0.00 0.00 0.00 84 1009.5
20260904032007 70 324 2.0 6.0 0.00 0.00 0.00 84 1009.5
20260904031545 71 314 2.0 5.0 0.00 0.00 0.00 84 1004.9
20260904031529 71 350 2.0 6.0 0.00 0.00 0.00 84 1009.5
20260904031007 71 8 2.0 6.0 0.00 0.00 0.00 83 1009.3
20260904030506 71 10 3.0 5.0 0.00 0.00 0.00 83 1009.3
20260904030044 71 23 2.0 4.0 0.00 0.00 0.00 83 1004.7
20260904030023 71 10 3.0 5.0 0.00 0.00 0.00 83 1009.2
20260904025512 72 317 2.0 5.0 0.00 0.00 0.00 82 1009.3
20260904025012 72 9 3.0 5.0 0.00 0.00 0.00 82 1009.2
20260904024544 72 354 2.0 6.0 0.00 0.00 0.00 82 1004.5
20260904024530 72 20 2.0 6.0 0.00 0.00 0.00 81 1009.1
20260904024011 72 346 3.0 6.0 0.00 0.00 0.00 81 1009.1
20260904023518 73 1 3.0 8.0 0.00 0.00 0.00 80 1009.0
20260904023044 73 9 3.0 8.0 0.00 0.00 0.00 80 1004.4
20260904023032 73 339 2.0 8.0 0.00 0.00 0.00 80 1009.0
20260904022514 73 59 5.0 7.0 0.00 0.00 0.00 79 1008.9
20260904022016 73 32 4.0 7.0 0.00 0.00 0.00 80 1008.8
20260904021543 73 315 3.0 7.0 0.00 0.00 0.00 80 1004.1
20260904021532 73 323 3.0 7.0 0.00 0.00 0.00 80 1008.8
20260904021009 74 310 3.0 8.0 0.00 0.00 0.00 79 1008.7
20260904020504 75 314 4.0 11.0 0.00 0.00 0.00 77 1008.6
20260904020042 75 347 6.0 11.0 0.00 0.00 0.00 76 1003.7
20260904020019 75 19 7.0 11.0 0.00 0.00 0.00 76 1008.4
20260904015506 76 16 6.0 12.0 0.00 0.00 0.00 75 1008.2
20260904015012 76 326 7.0 12.0 0.00 0.00 0.00 74 1008.0
20260904014612 76 34 7.0 12.0 0.00 0.00 0.00 74 1003.2
20260904014523 77 19 7.0 12.0 0.00 0.00 0.00 74 1008.0
20260904014014 77 24 7.0 12.0 0.00 0.00 0.00 73 1007.9
20260904013513 78 32 6.0 11.0 0.00 0.00 0.00 73 1007.8
20260904013045 78 15 5.0 11.0 0.00 0.00 0.00 73 1002.9
20260904013030 78 16 5.0 11.0 0.00 0.00 0.00 73 1007.7
20260904012504 79 321 4.0 11.0 0.00 0.00 0.00 72 1007.7
20260904012004 79 17 6.0 11.0 0.00 0.00 0.00 71 1007.6
20260904011541 80 23 3.0 9.0 0.00 0.00 0.00 72 1002.6
20260904011510 80 357 4.0 9.0 0.00 0.00 0.00 71 1007.4
20260904011003 80 301 4.0 8.0 0.00 0.00 0.00 70 1007.3
20260904010503 81 330 3.0 8.0 0.00 0.00 0.00 69 1007.3
20260904010040 82 323 4.0 7.0 0.00 0.00 0.00 68 1002.5
20260904010015 82 334 5.0 7.0 0.00 0.00 0.00 67 1007.3
20260904005508 83 328 3.0 6.0 0.00 0.00 0.00 64 1007.2
20260904005006 83 325 3.0 7.0 0.00 0.00 0.00 62 1007.2
20260904004540 84 358 3.0 7.0 0.00 0.00 0.00 61 1002.3
20260904004518 84 330 3.0 7.0 0.00 0.00 0.00 60 1007.1
20260904004008 85 309 4.0 6.0 0.00 0.00 0.00 58 1007.1
20260904003512 86 341 3.0 6.0 0.00 0.00 0.00 56 1007.0
20260904003040 87 303 2.0 8.0 0.00 0.00 0.00 54 1002.1
20260904003030 87 308 2.0 8.0 0.00 0.00 0.00 53 1007.0
20260904002512 89 336 4.0 8.0 0.00 0.00 0.00 50 1007.0
20260904002012 89 314 2.0 4.0 0.00 0.00 0.00 58 1006.8
20260904001539 90 274 1.0 3.0 0.00 0.00 0.00 59 1001.7
20260904001528 90 274 1.0 3.0 0.00 0.00 0.00 59 1006.6
20260904001003 91 262 2.0 3.0 0.00 0.00 0.00 58 1006.5
20260904000506 91 253 2.0 3.0 0.00 0.00 0.00 58 1006.5
20260904000038 91 238 1.0 3.0 0.00 0.00 0.00 56 1001.5
20260904000013 91 248 1.0 5.0 0.00 0.00 0.00 56 1006.4
20260903235507 91 249 2.0 5.0 0.00 0.00 0.00 56 1006.4
20260903235007 91 218 3.0 6.0 0.00 0.00 0.00 56 1006.3
20260903234542 92 231 2.0 7.0 0.00 0.00 0.00 55 1001.3
20260903234519 92 231 2.0 7.0 0.00 0.00 0.00 54 1006.3
20260903234007 92 237 4.0 7.0 0.00 0.00 0.00 54 1006.3
20260903233507 93 266 3.0 4.0 0.00 0.00 0.00 54 1006.3
20260903233037 93 243 1.0 4.0 0.00 0.00 0.00 53 1001.2
20260903233022 93 254 2.0 5.0 0.00 0.00 0.00 52 1006.2
20260903232511 93 257 2.0 6.0 0.00 0.00 0.00 53 1006.1
20260903232013 94 238 3.0 6.0 0.00 0.00 0.00 51 1006.0
20260903231536 94 224 3.0 5.0 0.00 0.00 0.00 51 1001.3
20260903231529 94 208 3.0 5.0 0.00 0.00 0.00 49 1006.0
20260903231012 94 212 3.0 5.0 0.00 0.00 0.00 50 1006.0
20260903230513 94 257 3.0 5.0 0.00 0.00 0.00 51 1006.0
20260903230041 94 231 2.0 8.0 0.00 0.00 0.00 51 1005.9
20260903230034 94 226 2.0 8.0 0.00 0.00 0.00 51 1001.2
20260903225503 94 247 2.0 8.0 0.00 0.00 0.00 48 1005.8
20260903225005 94 234 3.0 8.0 0.00 0.00 0.00 48 1005.8
20260903224528 94 245 3.0 8.0 0.00 0.00 0.00 48 1001.2
20260903224517 94 232 3.0 8.0 0.00 0.00 0.00 45 1005.7
20260903224007 94 247 4.0 5.0 0.00 0.00 0.00 46 1005.7
20260903223506 94 223 3.0 9.0 0.00 0.00 0.00 48 1005.7
20260903223028 94 236 2.0 9.0 0.00 0.00 0.00 49 1001.1
20260903223022 94 284 2.0 9.0 0.00 0.00 0.00 47 1005.7
20260903222508 94 231 3.0 11.0 0.00 0.00 0.00 46 1005.7
20260903222010 94 224 3.0 11.0 0.00 0.00 0.00 46 1005.6
20260903221527 94 245 4.0 7.0 0.00 0.00 0.00 46 1001.0
20260903221524 94 227 4.0 7.0 0.00 0.00 0.00 45 1005.6
20260903221010 94 231 3.0 7.0 0.00 0.00 0.00 48 1005.6
20260903220512 94 207 4.0 9.0 0.00 0.00 0.00 48 1005.6
20260903220028 94 213 4.0 10.0 0.00 0.00 0.00 48 1005.6
20260903220024 94 195 3.0 9.0 0.00 0.00 0.00 48 1000.9
20260903215518 94 203 4.0 10.0 0.00 0.00 0.00 47 1005.6
20260903215016 94 227 5.0 9.0 0.00 0.00 0.00 46 1005.6
20260903214536 94 231 3.0 10.0 0.00 0.00 0.00 48 1001.0
20260903214532 94 225 3.0 12.0 0.00 0.00 0.00 47 1005.6
20260903214003 94 191 5.0 12.0 0.00 0.00 0.00 47 1005.6
20260903213508 94 227 6.0 10.0 0.00 0.00 0.00 45 1005.6
20260903213027 94 216 6.0 10.0 0.00 0.00 0.00 45 1001.1
20260903213012 94 203 6.0 10.0 0.00 0.00 0.00 45 1005.7
20260903212506 93 205 5.0 11.0 0.00 0.00 0.00 46 1005.7
20260903212008 93 198 3.0 11.0 0.00 0.00 0.00 48 1005.8
20260903211529 93 239 5.0 11.0 0.00 0.00 0.00 45 1005.7
20260903211521 93 212 5.0 11.0 0.00 0.00 0.00 46 1001.2
20260903211011 93 232 5.0 12.0 0.00 0.00 0.00 45 1005.7
20260903210511 93 216 7.0 12.0 0.00 0.00 0.00 46 1005.8